Temperature
22 20 20 21 21 21 20 19 18 18 17 16 15 15 15 15 15 15 15 15 15 15 14 14 14 13 13 13 13 13 13 13 13 13 13 13 14 14 14 14 14 14 15 15
20 20 21 20 19 19 18 18 17 17 17 16 15 15 15 15 15 15 15 15 15 14 14 14 14 13 13 13 13 13 12 12 12 12 13 13 13 13 13 13 13 14 14 14
20 20 20 20 19 19 18 17 17 17 16 15 15 14 14 15 15 15 15 15 15 14 14 14 14 13 13 13 13 12 12 12 12 12 12 13 13 13 13 13 13 13 13 14
19 20 20 19 19 19 19 19 18 17 15 14 15 14 14 13 14 14 14 15 15 14 14 14 14 13 13 13 12 12 12 12 12 12 12 12 12 12 12 12 13 13 13 13
20 20 20 19 19 19 18 18 17 17 15 14 14 14 13 13 13 13 14 15 15 14 14 14 14 13 13 13 12 12 12 12 12 12 12 12 12 12 12 12 12 13 13 13
19 20 19 19 19 19 17 16 15 13 13 14 15 14 14 12 13 13 14 15 15 15 14 14 14 14 13 13 13 12 12 12 12 11 11 11 12 12 12 12 12 12 12 13
19 19 19 19 19 18 16 15 14 15 14 14 15 14 13 14 13 14 14 15 15 15 15 14 14 14 13 13 13 12 12 12 12 11 11 11 11 11 11 11 12 12 12 12
19 18 19 19 18 17 16 15 15 16 14 13 14 14 14 15 15 15 15 15 15 15 15 15 14 14 14 13 13 12 12 12 11 11 11 11 11 11 11 11 11 11 12 12
18 18 19 19 18 17 16 14 14 13 14 14 13 14 14 14 14 14 15 15 15 15 15 15 15 14 14 13 13 12 12 12 11 11 11 11 11 11 11 11 11 11 11 12
17 18 18 19 18 17 17 13 12 13 14 14 14 14 14 15 13 13 13 14 15 15 15 15 15 14 14 13 13 12 12 12 11 11 11 11 11 11 11 11 11 11 11 12
17 16 17 18 18 17 16 15 12 11 12 13 13 13 14 15 14 13 14 15 16 16 15 15 15 15 14 14 13 13 12 12 11 11 11 11 11 11 11 11 11 11 11 11
15 14 15 17 17 17 17 16 13 14 13 11 12 12 14 14 14 14 15 16 16 16 16 15 15 15 14 14 13 13 12 12 12 11 11 11 11 10 11 10 10 11 11 11
15 14 16 17 16 17 17 15 13 11 11 10 12 13 14 14 14 15 15 16 16 16 16 16 15 15 15 14 14 13 13 12 12 11 11 11 11 10 10 10 10 10 10 10
16 15 16 17 16 16 17 16 13 13 12 12 12 13 14 14 13 14 15 16 16 16 16 16 15 15 15 14 14 13 13 12 12 12 11 11 11 10 10 10 10 10 10 10
15 16 17 17 17 16 17 16 14 14 13 13 14 13 14 14 14 16 16 16 16 16 16 16 16 15 15 14 14 14 13 13 12 12 11 11 10 10 10 10 10 10 10 10
14 17 18 18 18 17 17 17 15 14 14 13 13 13 14 15 16 16 16 16 16 16 16 16 16 15 15 15 14 14 13 13 12 12 11 11 10 10 10 10 10 9 9 9
14 16 16 17 17 18 18 17 16 16 15 15 15 15 15 15 16 17 18 17 17 17 17 16 16 16 15 15 14 14 13 13 12 12 11 11 10 10 10 10 10 9 9 9
14 13 12 15 18 19 18 18 17 17 16 14 15 15 16 17 18 19 19 18 18 17 17 16 16 16 15 15 15 14 14 13 12 12 11 11 10 10 10 10 10 10 9 9
13 13 13 13 16 17 18 19 18 18 18 17 15 15 17 17 17 18 20 19 18 18 17 17 16 16 16 15 15 14 14 13 13 12 11 11 11 10 10 10 10 10 10 9
12 12 12 13 17 18 19 19 19 19 19 19 18 17 17 15 14 16 20 20 19 18 17 17 16 16 16 15 15 15 14 13 13 12 12 11 11 11 10 10 10 10 10 10
15 13 13 14 16 15 16 18 19 19 18 20 20 20 18 16 17 20 20 20 19 18 17 17 16 16 16 16 15 15 14 14 13 13 12 12 11 11 11 10 10 10 10 10
14 13 13 12 15 17 18 18 17 18 20 21 21 21 20 21 21 20 20 20 19 19 18 17 17 17 16 16 16 15 15 14 14 13 13 12 11 11 11 11 10 10 10 10
13 14 12 14 15 17 17 17 18 19 19 20 20 20 20 21 21 21 20 20 19 19 18 18 17 17 16 16 16 16 15 15 14 14 13 13 12 12 11 11 11 10 10 10
13 13 12 13 15 16 16 17 18 19 19 20 20 20 20 20 20 20 20 20 19 19 19 18 17 17 17 17 16 16 16 15 15 14 14 13 12 12 12 11 11 11 11 10
14 13 13 14 15 16 16 15 17 18 20 20 20 20 20 20 20 20 20 20 20 19 19 18 18 18 17 17 17 16 16 15 15 15 14 14 13 13 12 12 11 11 11 11
10 12 13 14 13 12 13 14 16 18 19 19 20 20 19 19 19 19 20 20 19 19 19 18 18 18 18 17 17 17 16 16 16 15 15 14 14 13 13 12 12 12 11 11
Wind_Speed
5 7 4 3 4 5 6 6 3 2 3 4 4 3 3 2 3 3 1 2 3 5 6 6 6 6 6 7 7 7 8 8 7 5 5 5 5 5 5 4 6 7 7 7
7 4 1 5 7 8 7 6 4 3 3 3 2 2 3 3 3 4 3 4 4 5 6 7 7 6 6 7 7 7 8 8 7 5 4 4 5 4 4 4 6 8 7 7
7 2 4 7 7 7 4 5 5 4 3 4 3 4 4 3 2 2 3 4 5 5 7 7 7 7 7 7 7 7 8 8 7 7 5 5 4 4 4 5 5 6 8 7
7 4 6 7 4 4 2 1 4 6 4 1 1 4 6 5 4 4 5 5 6 7 7 7 8 8 8 7 7 7 7 7 7 7 6 6 5 5 5 5 6 8 7 6
4 3 5 5 2 3 3 4 5 4 4 2 0 2 7 1 6 8 7 7 7 7 7 8 8 7 7 6 6 6 7 7 7 7 6 6 6 5 6 6 7 7 6 6
4 3 3 3 3 4 5 7 7 6 5 2 3 4 7 5 7 5 5 7 7 7 7 8 7 6 6 6 5 6 6 6 7 7 6 6 7 8 8 9 8 7 6 5
5 4 4 3 4 5 6 6 4 5 4 5 2 3 8 5 7 6 6 7 7 7 7 8 8 8 7 7 6 6 6 6 7 7 7 6 7 7 7 8 7 7 6 5
5 2 3 3 3 3 3 7 6 3 3 5 3 5 7 4 4 5 5 6 6 7 7 8 8 7 6 7 6 5 6 6 6 7 7 6 6 5 5 6 6 7 6 6
6 2 2 2 3 6 5 3 5 6 1 3 6 7 7 1 3 4 5 6 8 8 8 8 7 6 6 6 5 5 5 6 6 6 6 7 7 6 6 7 6 6 6 6
7 5 1 2 5 5 4 8 5 4 1 4 7 6 5 6 8 8 7 8 9 8 7 8 7 6 5 4 4 4 4 4 5 5 5 5 6 6 6 6 8 8 8 8
5 6 1 3 2 3 4 4 5 4 4 4 4 7 6 7 7 9 10 9 9 8 8 7 6 5 5 4 4 3 4 4 5 5 5 5 6 6 6 6 7 7 7 8
4 6 2 3 2 2 4 5 6 4 3 4 3 8 6 7 7 8 9 8 8 7 7 6 6 5 5 5 4 4 4 4 4 4 4 5 5 6 6 7 7 7 8 8
6 6 4 4 4 0 2 4 5 5 5 5 3 8 4 4 6 7 8 8 8 7 7 5 5 5 5 5 5 4 4 4 3 3 4 5 5 6 6 7 7 7 7 8
6 5 6 6 7 6 4 5 6 6 4 4 8 9 9 8 9 9 9 9 8 7 7 6 6 6 6 5 5 4 4 3 2 2 3 4 5 6 6 6 7 7 7 7
5 4 4 4 3 4 5 6 8 8 8 8 8 8 12 10 9 9 8 8 7 8 8 7 6 6 5 5 4 4 3 2 1 1 2 4 5 5 5 6 7 6 7 7
3 4 2 2 2 4 4 7 8 8 6 8 8 10 11 8 5 6 8 8 9 9 9 8 7 6 6 5 5 4 4 3 1 1 3 3 4 5 6 6 6 6 7 7
3 5 3 2 4 3 6 7 8 7 8 9 9 9 6 5 7 8 9 10 10 10 9 9 8 7 6 6 5 5 4 2 2 2 3 3 4 5 5 6 6 6 6 6
6 5 4 1 2 3 7 3 7 6 8 10 9 9 7 8 6 7 8 10 11 10 9 9 7 6 5 4 3 3 2 2 2 3 3 3 4 5 5 5 6 6 5 5
4 7 5 3 1 6 7 2 6 4 6 6 8 9 6 2 3 6 8 10 11 11 9 8 7 6 4 5 4 3 2 3 3 4 4 4 4 4 5 5 6 4 4 5
6 6 6 4 2 4 6 2 2 3 5 5 5 6 2 5 1 6 6 8 10 9 7 7 6 5 5 5 4 4 4 4 5 6 5 4 4 4 5 5 4 3 3 4
3 4 4 4 3 7 8 3 3 2 5 4 3 4 7 8 8 5 4 4 7 8 8 7 7 6 6 5 6 6 6 7 7 5 4 4 4 4 5 4 3 3 4 5
8 6 5 5 3 6 3 5 5 6 4 3 3 3 7 9 8 6 6 6 7 7 7 8 7 7 6 6 7 7 8 8 6 5 5 5 5 4 3 3 3 3 3 4
7 8 7 8 6 4 2 3 4 3 4 4 4 4 4 7 7 6 6 7 7 8 8 7 8 8 6 7 8 9 9 6 6 6 6 6 5 4 3 3 3 3 3 3
4 3 4 4 4 1 4 5 7 6 5 6 5 6 3 5 7 7 6 6 7 8 8 7 7 8 8 8 9 10 8 6 6 7 7 6 5 5 4 3 3 3 3 3
4 5 4 4 2 2 5 9 10 9 7 7 7 5 5 4 6 5 6 7 7 7 6 6 8 10 11 9 9 9 8 7 8 8 7 6 6 6 5 4 4 5 5 5
4 5 6 5 2 1 2 7 10 9 10 10 9 10 9 7 7 6 6 6 5 6 5 6 9 10 11 9 9 9 8 9 8 8 8 6 6 5 5 5 5 7 8 8
Wind_Direction
37 71 97 165 172 159 147 143 146 152 121 120 152 173 192 164 152 161 209 274 295 302 302 313 316 318 326 334 337 336 339 339 344 342 337 328 322 316 314 308 310 308 301 293
53 62 84 96 84 90 102 119 123 87 67 98 129 249 247 208 205 208 227 254 276 298 313 317 319 321 325 327 330 333 336 335 340 336 320 301 299 300 297 303 314 312 309 301
118 120 88 91 84 83 83 145 163 148 72 60 77 317 254 246 217 225 240 254 270 280 291 302 312 312 319 324 326 329 328 331 335 337 333 330 325 318 327 328 323 315 312 303
86 62 87 84 75 101 115 96 138 130 117 271 136 290 279 240 249 252 254 266 274 283 287 295 303 310 315 313 320 323 326 331 336 343 350 351 345 334 320 317 309 311 309 305
81 90 87 86 81 110 130 65 90 111 120 52 42 211 290 237 253 254 250 253 264 275 282 291 295 299 306 313 323 326 333 335 338 344 347 346 339 325 319 320 322 325 321 316
75 62 84 118 78 79 108 70 58 54 72 333 229 184 281 230 224 239 234 241 256 271 285 293 298 308 312 318 325 334 339 333 337 343 346 347 339 334 337 339 339 335 329 323
45 28 25 86 83 43 72 80 33 2 6 264 256 210 253 252 222 214 220 235 251 266 281 292 303 311 313 317 322 329 336 331 335 341 342 342 338 336 336 333 334 336 334 330
125 355 356 45 115 114 91 123 146 204 249 290 308 248 258 263 229 219 223 234 255 271 279 284 289 295 299 303 313 324 328 325 331 338 337 339 343 339 333 333 336 337 333 325
145 169 357 74 101 119 112 101 150 131 176 292 291 287 304 220 239 233 240 247 259 270 280 282 288 292 292 295 303 310 314 320 328 334 336 341 346 346 342 340 344 341 338 338
131 130 22 84 72 48 107 138 97 105 124 301 302 289 267 258 248 244 242 243 254 269 280 285 286 285 289 289 296 311 311 311 318 332 338 345 343 345 344 347 351 348 344 346
101 121 57 38 138 164 113 90 101 106 144 159 296 283 231 233 236 230 234 236 243 259 273 278 282 285 288 293 301 309 317 322 327 334 338 344 344 345 349 352 350 346 346 349
104 111 139 258 268 199 163 159 146 147 203 170 200 270 266 247 247 228 233 239 243 255 267 271 278 289 293 294 299 300 308 317 320 327 339 345 345 348 352 348 344 345 347 348
130 109 87 355 345 302 166 146 136 124 117 157 201 266 287 278 259 239 236 243 249 261 272 279 286 289 288 285 285 286 294 301 312 330 343 349 350 348 344 341 340 344 346 348
112 112 157 187 218 194 192 176 150 136 158 212 230 260 292 272 256 249 237 239 244 256 264 270 277 279 282 278 273 269 280 288 298 330 342 343 339 336 333 334 340 345 346 349
101 135 185 220 213 174 204 197 177 187 196 208 243 250 267 264 244 239 230 229 241 256 260 260 261 269 277 279 272 258 260 272 280 312 325 326 327 332 336 340 340 342 347 350
82 120 90 6 357 198 245 236 204 216 216 234 263 275 261 264 250 241 229 222 234 245 250 255 258 261 264 264 262 255 251 252 231 267 296 313 329 337 339 337 339 343 344 343
97 116 102 317 337 42 281 243 197 214 213 201 229 248 268 261 246 238 228 220 227 237 241 244 246 247 252 252 247 243 244 232 217 255 288 309 322 329 330 335 342 341 338 341
122 101 109 93 54 259 245 244 186 214 246 218 235 254 250 244 260 255 226 216 227 233 233 236 236 241 246 242 236 229 216 209 222 253 280 295 309 315 323 334 339 333 329 336
120 125 109 107 170 288 299 241 175 193 286 226 230 261 267 262 336 297 232 211 219 223 221 224 222 221 230 232 221 192 205 215 234 251 264 275 286 303 318 326 328 327 331 335
68 89 109 122 158 240 251 285 171 123 305 275 220 261 201 123 19 280 271 217 219 219 216 217 212 208 223 226 191 187 212 225 240 244 250 263 271 283 297 307 313 318 323 322
95 71 118 151 215 263 251 244 121 101 263 277 231 237 174 193 216 244 296 235 214 212 212 206 199 209 222 205 180 202 219 233 238 237 244 258 265 269 276 295 308 318 327 332
164 152 168 148 184 258 250 150 176 221 257 275 265 229 208 233 257 263 271 251 226 216 211 198 201 222 224 195 189 214 231 237 231 226 239 254 262 267 274 282 304 322 333 336
186 185 180 184 204 246 313 229 297 293 275 287 292 284 248 253 262 256 252 247 237 225 217 204 205 224 228 206 198 218 236 226 215 222 238 250 261 260 258 259 282 306 321 326
235 166 157 230 261 316 11 351 336 311 280 296 305 310 292 268 279 274 261 251 242 233 223 209 205 222 235 222 214 225 233 212 207 224 238 244 252 262 258 244 237 245 271 288
192 166 182 233 289 3 23 8 345 344 4 11 6 9 356 325 308 290 274 263 250 241 229 210 212 225 237 230 226 230 223 205 214 228 237 241 240 247 253 248 234 229 232 217
194 178 177 198 185 179 351 345 346 7 20 18 22 22 15 6 337 323 299 285 270 257 242 230 229 234 242 237 237 236 215 201 209 226 235 234 234 237 237 247 268 243 234 244
Height
1520 1528 1536 1535 1534 1536 1541 1547 1553 1553 1551 1555 1558 1559 1558 1558 1558 1558 1558 1557 1557 1555 1554 1552 1549 1546 1543 1540 1536 1533 1529 1526 1523 1520 1517 1515 1513 1511 1510 1509 1508 1507 1507 1507
1528 1535 1532 1532 1534 1537 1543 1551 1554 1554 1552 1556 1560 1560 1558 1557 1557 1557 1557 1556 1556 1554 1553 1551 1548 1545 1542 1539 1536 1532 1529 1526 1522 1519 1516 1513 1511 1509 1507 1506 1504 1503 1503 1503
1532 1535 1532 1534 1538 1542 1546 1551 1553 1556 1557 1558 1561 1563 1558 1556 1556 1556 1556 1555 1555 1554 1552 1550 1547 1544 1542 1538 1535 1532 1529 1525 1522 1519 1516 1513 1510 1507 1505 1503 1501 1500 1499 1499
1533 1533 1534 1538 1542 1543 1549 1546 1548 1554 1562 1567 1564 1575 1560 1557 1555 1554 1554 1554 1553 1552 1551 1549 1546 1544 1541 1538 1535 1532 1528 1525 1522 1518 1515 1512 1509 1506 1503 1501 1499 1497 1496 1495
1536 1535 1537 1541 1542 1542 1547 1546 1549 1554 1561 1569 1567 1573 1565 1557 1557 1553 1552 1552 1551 1551 1550 1548 1546 1543 1541 1538 1535 1532 1528 1525 1522 1518 1515 1512 1509 1506 1503 1500 1497 1495 1493 1492
1536 1536 1537 1540 1541 1542 1545 1551 1556 1562 1567 1575 1567 1573 1567 1560 1553 1550 1549 1549 1550 1549 1548 1547 1545 1543 1540 1537 1534 1531 1528 1525 1522 1518 1515 1512 1509 1506 1503 1499 1496 1494 1491 1490
1541 1540 1539 1539 1543 1545 1549 1561 1575 1574 1582 1578 1566 1568 1563 1549 1547 1547 1547 1547 1548 1548 1547 1546 1544 1542 1539 1537 1534 1531 1528 1525 1521 1518 1515 1512 1509 1506 1502 1499 1496 1493 1490 1488
1548 1552 1543 1541 1544 1548 1552 1559 1576 1581 1584 1579 1567 1567 1554 1545 1544 1544 1545 1546 1546 1546 1545 1544 1543 1541 1538 1536 1533 1530 1528 1524 1521 1518 1515 1512 1509 1506 1503 1499 1496 1493 1490 1487
1548 1551 1543 1541 1542 1545 1554 1561 1563 1575 1575 1580 1573 1562 1549 1544 1543 1543 1544 1544 1544 1544 1544 1543 1541 1539 1537 1535 1533 1530 1527 1524 1522 1519 1515 1512 1509 1506 1503 1499 1496 1493 1489 1487
1538 1549 1545 1543 1543 1546 1549 1558 1568 1575 1580 1583 1576 1567 1559 1545 1544 1542 1542 1542 1542 1542 1542 1541 1540 1538 1536 1534 1532 1530 1527 1524 1522 1519 1515 1512 1509 1506 1503 1500 1496 1493 1490 1487
1535 1548 1550 1547 1548 1551 1554 1559 1568 1577 1577 1585 1584 1571 1545 1541 1538 1538 1538 1539 1540 1540 1540 1539 1538 1537 1535 1533 1531 1529 1527 1524 1521 1518 1515 1512 1509 1506 1503 1500 1496 1493 1490 1487
1538 1550 1557 1550 1546 1546 1548 1553 1564 1572 1575 1581 1584 1570 1537 1536 1535 1535 1535 1536 1537 1538 1538 1537 1536 1535 1534 1532 1530 1528 1526 1524 1521 1518 1515 1512 1509 1506 1503 1499 1496 1493 1490 1487
1537 1549 1560 1558 1557 1550 1549 1553 1558 1567 1575 1582 1581 1564 1536 1534 1533 1533 1533 1534 1535 1535 1536 1535 1535 1533 1532 1530 1529 1527 1525 1523 1521 1518 1515 1512 1509 1506 1502 1499 1496 1494 1490 1487
1533 1545 1554 1558 1555 1549 1549 1551 1557 1562 1572 1575 1568 1555 1538 1533 1532 1530 1530 1531 1532 1533 1533 1533 1532 1532 1530 1529 1527 1526 1524 1522 1520 1517 1515 1512 1509 1505 1502 1500 1497 1494 1491 1488
1533 1543 1542 1543 1542 1544 1545 1547 1552 1556 1558 1561 1553 1548 1536 1529 1527 1525 1526 1528 1529 1530 1530 1531 1530 1530 1529 1527 1526 1524 1523 1521 1519 1517 1514 1511 1509 1506 1503 1500 1497 1494 1491 1489
1534 1540 1541 1542 1541 1541 1543 1542 1546 1549 1549 1550 1547 1542 1526 1524 1523 1522 1523 1524 1526 1527 1528 1528 1528 1528 1527 1526 1525 1523 1522 1520 1518 1516 1513 1511 1508 1506 1503 1500 1497 1494 1492 1489
1537 1540 1547 1549 1544 1542 1546 1537 1539 1540 1539 1540 1541 1533 1523 1522 1521 1520 1520 1521 1522 1524 1525 1526 1526 1526 1525 1525 1523 1522 1520 1519 1517 1515 1513 1511 1508 1506 1503 1500 1497 1494 1492 1489
1537 1544 1553 1554 1547 1550 1539 1527 1529 1532 1530 1530 1528 1523 1521 1520 1519 1518 1518 1518 1519 1521 1522 1523 1524 1524 1524 1523 1522 1521 1519 1517 1516 1514 1512 1510 1508 1505 1503 1500 1497 1494 1492 1489
1532 1541 1552 1558 1555 1549 1533 1525 1526 1529 1527 1521 1522 1519 1518 1518 1517 1515 1514 1515 1516 1518 1520 1521 1522 1522 1522 1521 1521 1519 1518 1516 1515 1513 1511 1509 1507 1505 1503 1500 1498 1495 1492 1489
1535 1539 1551 1557 1551 1549 1533 1523 1522 1526 1528 1519 1518 1517 1517 1518 1522 1517 1513 1512 1514 1515 1517 1518 1519 1520 1520 1520 1519 1518 1517 1515 1514 1512 1511 1509 1507 1505 1503 1500 1498 1495 1492 1489
1540 1545 1551 1555 1552 1545 1525 1521 1523 1534 1533 1517 1516 1515 1515 1515 1515 1513 1512 1512 1512 1513 1515 1516 1517 1517 1518 1518 1517 1516 1515 1514 1513 1511 1510 1508 1507 1505 1503 1500 1498 1495 1492 1489
1538 1545 1549 1553 1551 1542 1519 1520 1524 1524 1516 1516 1515 1514 1513 1512 1511 1511 1510 1511 1511 1512 1513 1514 1514 1515 1515 1515 1515 1514 1513 1513 1511 1510 1509 1507 1506 1504 1502 1500 1498 1495 1492 1489
1530 1530 1533 1535 1533 1522 1519 1519 1518 1517 1516 1515 1514 1513 1512 1511 1509 1509 1509 1509 1509 1510 1510 1511 1512 1512 1513 1513 1512 1512 1512 1511 1509 1508 1507 1506 1504 1503 1501 1499 1497 1495 1492 1490
1523 1522 1525 1527 1520 1519 1518 1516 1515 1513 1513 1513 1512 1511 1510 1509 1508 1507 1507 1507 1507 1507 1508 1508 1509 1509 1509 1510 1509 1509 1509 1508 1507 1506 1505 1504 1502 1501 1500 1498 1496 1494 1492 1490
1517 1520 1521 1521 1518 1517 1516 1515 1513 1512 1512 1511 1511 1510 1509 1508 1507 1506 1505 1505 1505 1505 1505 1506 1506 1506 1506 1507 1506 1506 1506 1505 1504 1503 1502 1501 1500 1499 1497 1496 1495 1493 1491 1489
1515 1516 1518 1518 1517 1517 1518 1516 1514 1512 1511 1510 1510 1509 1508 1507 1505 1504 1503 1503 1502 1502 1502 1502 1502 1502 1502 1503 1503 1503 1503 1502 1501 1500 1499 1498 1497 1496 1495 1494 1492 1491 1490 1488